TimeEDT,TemperatureF,Dew PointF,Humidity,Sea Level PressureIn,VisibilityMPH,Wind Direction,Wind SpeedMPH,Gust SpeedMPH,PrecipitationIn,Events,Conditions,WindDirDegrees,DateUTC
12:53 AM,46.0,44.1,93,29.59,6.0,South,3.5,-,0.05,Rain,Light Rain,180,2012-10-20 04:53:00
1:53 AM,46.0,43.0,89,29.59,7.0,SSW,3.5,-,0.04,Rain,Light Rain,210,2012-10-20 05:53:00
2:13 AM,46.4,42.8,87,29.58,7.0,WSW,3.5,-,0.01,Rain,Light Rain,240,2012-10-20 06:13:00
2:33 AM,46.4,44.6,93,29.59,8.0,Calm,Calm,-,0.01,Rain,Light Rain,0,2012-10-20 06:33:00
2:53 AM,46.0,44.1,93,29.60,8.0,Calm,Calm,-,0.02,Rain,Light Rain,0,2012-10-20 06:53:00
3:41 AM,46.4,44.6,93,29.59,8.0,Calm,Calm,-,0.01,Rain,Light Rain,0,2012-10-20 07:41:00
3:53 AM,46.0,44.1,93,29.60,8.0,SW,3.5,-,0.01,Rain,Light Rain,220,2012-10-20 07:53:00
4:15 AM,46.4,42.8,87,29.59,8.0,WSW,3.5,-,0.00,Rain,Light Rain,240,2012-10-20 08:15:00
4:35 AM,46.4,42.8,87,29.59,8.0,SW,3.5,-,0.00,Rain,Light Rain,230,2012-10-20 08:35:00
4:53 AM,46.0,44.1,93,29.61,5.0,SW,3.5,-,0.01,Rain,Light Rain,230,2012-10-20 08:53:00
5:05 AM,46.4,44.6,93,29.60,4.0,WSW,3.5,-,0.01,Rain,Light Rain,240,2012-10-20 09:05:00
5:45 AM,46.4,44.6,93,29.60,7.0,SW,5.8,-,0.02,Rain,Light Rain,230,2012-10-20 09:45:00
5:53 AM,46.0,44.1,93,29.61,7.0,WSW,5.8,-,0.02,Rain,Light Rain,240,2012-10-20 09:53:00
6:53 AM,46.0,43.0,89,29.62,6.0,WSW,5.8,-,0.02,Rain,Light Rain,240,2012-10-20 10:53:00
7:00 AM,46.4,42.8,87,29.61,6.0,WSW,6.9,-,0.00,Rain,Light Rain,240,2012-10-20 11:00:00
7:53 AM,46.0,43.0,89,29.64,6.0,WSW,8.1,-,0.01,Rain,Light Rain,240,2012-10-20 11:53:00
8:53 AM,46.0,43.0,89,29.66,5.0,WSW,9.2,-,0.00,Rain,Light Rain,250,2012-10-20 12:53:00
9:16 AM,46.4,44.6,93,29.65,6.0,WSW,8.1,-,0.01,Rain,Light Rain,250,2012-10-20 13:16:00
9:34 AM,46.4,44.6,93,29.66,5.0,WSW,5.8,-,0.01,Rain,Light Rain,250,2012-10-20 13:34:00
9:53 AM,46.9,44.1,90,29.67,6.0,West,6.9,-,0.01,,Overcast,260,2012-10-20 13:53:00
10:53 AM,48.0,44.1,86,29.68,9.0,West,8.1,-,N/A,,Overcast,270,2012-10-20 14:53:00
11:05 AM,48.2,44.6,87,29.68,10.0,West,8.1,17.3,N/A,,Overcast,260,2012-10-20 15:05:00
11:53 AM,48.9,44.1,83,29.69,10.0,West,9.2,-,N/A,,Overcast,270,2012-10-20 15:53:00
12:30 PM,50.0,44.6,82,29.69,10.0,West,15.0,-,N/A,,Overcast,270,2012-10-20 16:30:00
12:53 PM,51.1,45.0,80,29.70,10.0,West,16.1,-,N/A,,Overcast,270,2012-10-20 16:53:00
1:53 PM,51.8,44.6,76,29.70,10.0,WNW,13.8,-,N/A,,Overcast,290,2012-10-20 17:53:00
2:04 PM,51.8,44.6,76,29.70,10.0,WNW,16.1,-,N/A,,Overcast,290,2012-10-20 18:04:00
2:53 PM,54.0,44.1,69,29.72,10.0,WNW,13.8,21.9,N/A,,Overcast,290,2012-10-20 18:53:00
3:27 PM,53.6,44.6,72,29.72,10.0,WNW,10.4,-,N/A,,Overcast,300,2012-10-20 19:27:00
3:53 PM,53.1,43.0,69,29.74,10.0,WNW,8.1,-,N/A,,Overcast,300,2012-10-20 19:53:00
4:53 PM,53.1,43.0,69,29.76,10.0,West,5.8,-,N/A,,Overcast,280,2012-10-20 20:53:00
5:53 PM,52.0,44.1,74,29.79,10.0,West,4.6,-,N/A,,Overcast,260,2012-10-20 21:53:00
6:53 PM,51.1,42.1,71,29.81,10.0,West,5.8,-,N/A,,Overcast,260,2012-10-20 22:53:00
7:53 PM,48.0,42.1,80,29.83,10.0,WSW,6.9,-,N/A,,Clear,240,2012-10-20 23:53:00
8:53 PM,46.0,42.1,86,29.85,10.0,WSW,5.8,-,N/A,,Clear,240,2012-10-21 00:53:00
9:53 PM,46.9,42.1,83,29.88,10.0,WSW,6.9,-,N/A,,Clear,250,2012-10-21 01:53:00
10:53 PM,45.0,41.0,86,29.90,10.0,WSW,5.8,-,N/A,,Clear,240,2012-10-21 02:53:00
11:53 PM,44.1,41.0,89,29.91,10.0,WSW,3.5,-,N/A,,Clear,240,2012-10-21 03:53:00